Flag for Germany Weather past 2 weeks in Neunkirchen (Saar), Saarland, Germany

Now
50 °F

Broken clouds.


Feels Like: 43 °F
Forecast: 41 / 51 °F
Wind: 22 mph from West

Location: Saarbruecken / Ensheim

Current Time: Mar 30, 2015 at 5:18:59 PM

Latest Report: Mar 30, 2015 at 4:50 PM


Visibility: N/A

Pressure: 29.86 "Hg

Humidity: 47%

Dew point: 30 °F

Location of Neunkirchen (Saar)Location

Historic Weather in Neunkirchen (Saar) — Graph

°F

Neunkirchen (Saar) temperature yesterday

Maximum temperature yesterday: 50 °F (at 3:20 AM)
Minimum temperature yesterday: 48 °F (at 12:20 AM)
Average temperature yesterday: 49 °F

Past Weeks' High & Low Weather Summary

 TemperatureHumidityPressure
High64 °F (Mar 18, 2:20 PM)100% (Mar 21, 8:50 AM)30.30 "Hg (Mar 21, 8:50 AM)
Low32 °F (Mar 21, 6:20 AM)32% (Mar 18, 3:50 PM)29.53 "Hg (Mar 29, 9:50 PM)
Average45 °F74%30.00 "Hg
* Reported Mar 15 3:20 PM — Mar 30 4:20 PM, Neunkirchen (Saar), Weather by CustomWeather, © 2015

Note: Actual official high and low records may vary slightly from our data, if they occured in-between our weather recording intervals... More about our weather records

Advertising

Neunkirchen (Saar) weather history for previous 24 hours

 ConditionsComfort  
Time TempWeatherWind HumidityBarometerVisibility
4:20 PM
Mon, Mar 30
48 °FBroken clouds.22 mph50%29.83 "HgN/A
3:50 PM48 °FBroken clouds.20 mph54%29.83 "HgN/A
3:20 PM50 °FBroken clouds.18 mph50%29.83 "HgN/A
2:50 PM48 °FBroken clouds.18 mph58%29.80 "HgN/A
2:20 PM46 °FSprinkles. Broken clouds.15 mph62%29.80 "HgN/A
1:50 PM46 °FSprinkles. Broken clouds.17 mph62%29.80 "HgN/A
1:20 PM48 °FScattered clouds.22 mph58%29.77 "HgN/A
12:50 PM46 °FScattered clouds.18 mph71%29.77 "HgN/A
12:20 PM43 °FBroken clouds.18 mph87%29.77 "HgN/A
11:50 AM48 °FBroken clouds.23 mph62%29.71 "HgN/A
11:20 AM48 °FBroken clouds.23 mph62%29.71 "HgN/A
10:50 AM48 °FScattered clouds.17 mph66%29.68 "HgN/A
10:20 AM45 °FSprinkles. Partly sunny.22 mph81%29.68 "HgN/A
9:50 AM46 °FPartly sunny.22 mph76%29.68 "HgN/A
9:20 AM46 °FScattered clouds.18 mph82%29.65 "HgN/A
8:50 AM45 °FPartly sunny.17 mph87%29.65 "HgN/A
8:20 AM45 °FSprinkles. Partly sunny.12 mph87%29.62 "HgN/A
7:50 AM45 °FSprinkles. Mostly cloudy.18 mph87%29.62 "HgN/A
7:20 AM45 °FMostly cloudy.16 mph87%29.59 "HgN/A
6:50 AM45 °FMostly cloudy.17 mph87%29.59 "HgN/A
6:20 AM45 °FLight rain. Mostly cloudy.17 mph87%29.56 "HgN/A
5:50 AM45 °FLight rain. Mostly cloudy.18 mph93%29.56 "HgN/A
5:20 AM45 °FLight rain. Passing clouds.18 mph93%29.56 "HgN/A
4:50 AM45 °FLight rain. Passing clouds.18 mph93%29.56 "HgN/A
4:20 AM45 °FLight rain. Passing clouds.13 mph93%29.56 "HgN/A
3:50 AM46 °FLight rain. Passing clouds.22 mph87%29.56 "HgN/A
3:20 AM46 °FLight rain. Passing clouds.20 mph87%29.56 "HgN/A
2:50 AM46 °FLight rain. Passing clouds.18 mph87%29.56 "HgN/A
2:20 AM48 °FLight rain. Passing clouds.28 mph76%29.56 "HgN/A
1:50 AM48 °FLight rain. Partly cloudy.26 mph76%29.56 "HgN/A
1:20 AM48 °FLight rain. Passing clouds.29 mph82%29.56 "HgN/A
12:50 AM48 °FLight rain. Passing clouds.21 mph94%29.56 "HgN/A
12:20 AM48 °FLight rain. Partly cloudy.28 mph87%29.56 "HgN/A
11:50 PM
Sun, Mar 29
50 °FLight rain. Partly cloudy.25 mph88%29.56 "HgN/A
11:20 PM50 °FLight rain. Passing clouds.29 mph88%29.56 "Hg4 mi
10:50 PM50 °FPartly cloudy.29 mph88%29.56 "HgN/A
10:20 PM50 °FLight rain. Passing clouds.30 mph88%29.53 "HgN/A
9:50 PM50 °FLight rain. Passing clouds.28 mph94%29.53 "HgN/A
9:20 PM50 °FPassing clouds.29 mph94%29.56 "HgN/A
8:50 PM50 °FPartly sunny.24 mph94%29.56 "HgN/A
8:20 PM50 °FLight rain. Partly sunny.28 mph94%29.56 "HgN/A
7:50 PM50 °FLight rain. Broken clouds.31 mph88%29.56 "Hg4 mi
7:20 PM50 °FLight rain. Mostly cloudy.28 mph88%29.59 "Hg3 mi
6:50 PM50 °FDrizzle. Mostly cloudy.29 mph88%29.59 "Hg3 mi
6:20 PM50 °FDrizzle. Mostly cloudy.30 mph88%29.59 "Hg4 mi
5:50 PM50 °FDrizzle. Mostly cloudy.29 mph94%29.59 "HgN/A
5:20 PM50 °FDrizzle. Mostly cloudy.25 mph94%29.62 "Hg3 mi
Weather by CustomWeather, © 2015

See weather overviewHow to use our weather pages